Location: Erlenbrunn
(49.1717°N, 7.6142°E)
Time: 13:02:46
(UTC+00:00)

Cosmos 1607 - Pass Details

Date: 25 November 2020
Orbit: 907 x 995 km, 65.0° (Epoch: 25 January)

Event Time Altitude Azimuth Distance (km) Brightness Sun altitude
Rises 16:07:51 0° 232° (SW) 3,620 9.1 -5.1°
Reaches altitude 10° 16:10:25 10° 236° (SW) 2,690 8.1 -5.5°
Maximum altitude 16:16:39 59° 315° (NW) 1,116 4.5 -6.4°
Drops below altitude 10° 16:23:02 10° 36° (NE) 2,755 5.8 -7.4°
Enters shadow 16:24:23 - 38° (NE) 3,236 6.2 -7.6°
